CES6088 VTBS-ZPPP

Flight info

Callsign CES6088
Flight time 1h 50m
Altitude 33100
Route VTBS/02R NOBE2H NOBER B346 LPB B218 SAGAG/K0865S1010 A581 ELASU
Aircraft A320/M-SDE2E3FGILRWXY/LB2

Departure

Time 2026-05-07 12:29
Airport Suvarnabhumi Airport (VTBS)

Arrival

Time 2026-05-07 14:20
Airport Kunming Changshui International Airport (ZPPP)
Time Latitude Longitude Altitude Speed Heading
2026-05-07 12:29 13.83993 100.77899 4146 ft 265 kts 15°
2026-05-07 12:29 13.85812 100.78381 4652 ft 273 kts 15°
2026-05-07 12:29 13.87671 100.78871 5169 ft 277 kts 15°
2026-05-07 12:30 13.89546 100.79364 5696 ft 279 kts 16°
2026-05-07 12:30 13.91436 100.79862 6238 ft 282 kts 16°
2026-05-07 12:30 13.93344 100.80366 6797 ft 284 kts 16°
2026-05-07 12:30 13.95266 100.80872 7388 ft 286 kts 16°
2026-05-07 12:31 13.97205 100.81384 7978 ft 288 kts 16°
2026-05-07 12:31 13.99154 100.81897 8589 ft 290 kts 16°
2026-05-07 12:31 14.01119 100.82416 9199 ft 292 kts 16°
2026-05-07 12:31 14.03091 100.82936 9822 ft 294 kts 16°
2026-05-07 12:32 14.05090 100.83464 10398 ft 298 kts 16°
2026-05-07 12:32 14.07108 100.83997 10980 ft 301 kts 16°
2026-05-07 12:32 14.09150 100.84537 11574 ft 304 kts 16°
2026-05-07 12:32 14.11210 100.85080 12173 ft 306 kts 16°
2026-05-07 12:33 14.15359 100.86176 13426 ft 309 kts 16°
2026-05-07 12:33 14.17442 100.86727 14009 ft 310 kts 16°
2026-05-07 12:33 14.19540 100.87281 14462 ft 315 kts 16°
2026-05-07 12:34 14.21712 100.87858 14600 ft 330 kts 16°
2026-05-07 12:34 14.23983 100.88461 14630 ft 341 kts 15°
2026-05-07 12:34 14.26348 100.88729 14638 ft 345 kts 358°
2026-05-07 12:34 14.28698 100.88208 14640 ft 348 kts 339°
2026-05-07 12:35 14.30784 100.86936 14634 ft 351 kts 320°
2026-05-07 12:35 14.32381 100.85045 14634 ft 352 kts 301°
2026-05-07 12:35 14.33317 100.82716 14634 ft 353 kts 285°
2026-05-07 12:35 14.33935 100.80248 14673 ft 361 kts 284°
2026-05-07 12:36 14.34585 100.77654 14812 ft 377 kts 284°
2026-05-07 12:36 14.35245 100.75022 14835 ft 389 kts 284°
2026-05-07 12:36 14.35936 100.72273 14837 ft 392 kts 285°
2026-05-07 12:36 14.36626 100.69548 14835 ft 393 kts 285°
2026-05-07 12:37 14.37318 100.66817 14836 ft 394 kts 285°
2026-05-07 12:37 14.38011 100.64084 14859 ft 396 kts 285°
2026-05-07 12:37 14.38709 100.61325 15316 ft 398 kts 285°
2026-05-07 12:37 14.39403 100.58556 15792 ft 400 kts 285°
2026-05-07 12:38 14.40098 100.55769 16260 ft 403 kts 284°
2026-05-07 12:38 14.40795 100.52961 16724 ft 405 kts 284°
2026-05-07 12:38 14.41501 100.50136 17179 ft 408 kts 285°
2026-05-07 12:38 14.42505 100.47391 17645 ft 411 kts 298°
2026-05-07 12:39 14.44079 100.44935 18086 ft 412 kts 311°
2026-05-07 12:39 14.46149 100.42889 18480 ft 414 kts 324°
2026-05-07 12:39 14.48618 100.41358 18872 ft 415 kts 337°
2026-05-07 12:39 14.51335 100.40356 19276 ft 416 kts 343°
2026-05-07 12:40 14.54105 100.39446 19690 ft 419 kts 343°
2026-05-07 12:40 14.56889 100.38530 20096 ft 421 kts 343°
2026-05-07 12:40 14.59689 100.37602 20497 ft 424 kts 343°
2026-05-07 12:40 14.62502 100.36666 20887 ft 426 kts 343°
2026-05-07 12:41 14.65340 100.35744 21262 ft 428 kts 346°
2026-05-07 12:41 14.68276 100.35222 21618 ft 429 kts 358°
2026-05-07 12:41 14.71251 100.35315 21970 ft 429 kts
2026-05-07 12:41 14.74151 100.36010 22311 ft 429 kts 20°
2026-05-07 12:42 14.76876 100.37258 22634 ft 429 kts 30°
2026-05-07 12:42 14.79490 100.38771 22959 ft 431 kts 30°
2026-05-07 12:42 14.82114 100.40293 23282 ft 433 kts 31°
2026-05-07 12:42 14.84748 100.41824 23556 ft 435 kts 31°
2026-05-07 12:43 14.87394 100.43364 23816 ft 437 kts 30°
2026-05-07 12:43 14.90046 100.44907 24080 ft 439 kts 30°
2026-05-07 12:43 14.92712 100.46461 24345 ft 440 kts 30°
2026-05-07 12:43 14.95419 100.48042 24616 ft 442 kts 30°
2026-05-07 12:44 14.98096 100.49606 24872 ft 443 kts 30°
2026-05-07 12:44 15.00753 100.51153 25128 ft 445 kts 30°
2026-05-07 12:44 15.03486 100.52742 25379 ft 446 kts 30°
2026-05-07 12:44 15.06200 100.54320 25624 ft 448 kts 30°
2026-05-07 12:45 15.08918 100.55903 25875 ft 449 kts 30°
2026-05-07 12:45 15.11646 100.57489 26131 ft 451 kts 30°
2026-05-07 12:45 15.14382 100.59082 26367 ft 452 kts 30°
2026-05-07 12:45 15.17129 100.60684 26616 ft 454 kts 30°
2026-05-07 12:46 15.19889 100.62297 26862 ft 456 kts 30°
2026-05-07 12:46 15.22652 100.63912 27103 ft 458 kts 30°
2026-05-07 12:46 15.25431 100.65536 27363 ft 458 kts 30°
2026-05-07 12:46 15.28264 100.67040 27706 ft 457 kts 23°
2026-05-07 12:47 15.31243 100.68193 28042 ft 457 kts 20°
2026-05-07 12:47 15.34229 100.69312 28389 ft 456 kts 20°
2026-05-07 12:47 15.37208 100.70425 28740 ft 455 kts 20°
2026-05-07 12:47 15.40184 100.71535 29079 ft 454 kts 20°
2026-05-07 12:48 15.43159 100.72645 29457 ft 453 kts 20°
2026-05-07 12:48 15.46122 100.73753 29828 ft 453 kts 20°
2026-05-07 12:48 15.49080 100.74861 30149 ft 452 kts 20°
2026-05-07 12:48 15.52033 100.75969 30460 ft 451 kts 20°
2026-05-07 12:49 15.54978 100.77077 30775 ft 450 kts 20°
2026-05-07 12:49 15.57919 100.78185 31105 ft 449 kts 20°
2026-05-07 12:49 15.60857 100.79292 31438 ft 448 kts 19°
2026-05-07 12:49 15.63786 100.80397 31773 ft 447 kts 19°
2026-05-07 12:50 15.66708 100.81499 32104 ft 446 kts 19°
2026-05-07 12:50 15.69626 100.82593 32455 ft 445 kts 19°
2026-05-07 12:50 15.72531 100.83681 32799 ft 444 kts 19°
2026-05-07 12:50 15.75444 100.84773 32910 ft 446 kts 19°
2026-05-07 12:51 15.81351 100.86998 32928 ft 456 kts 19°
2026-05-07 12:51 15.87367 100.89275 32927 ft 458 kts 19°
2026-05-07 12:52 15.93353 100.91535 32930 ft 457 kts 19°
2026-05-07 12:52 15.99333 100.93795 32928 ft 457 kts 19°
2026-05-07 12:53 16.05315 100.96056 32931 ft 457 kts 19°
2026-05-07 12:53 16.11288 100.98312 32933 ft 457 kts 19°
2026-05-07 12:54 16.17272 101.00567 32944 ft 457 kts 19°
2026-05-07 12:54 16.23252 101.02821 32947 ft 457 kts 19°
2026-05-07 12:55 16.29230 101.05093 32956 ft 457 kts 19°
2026-05-07 12:55 16.35200 101.07365 32961 ft 457 kts 19°
2026-05-07 12:56 16.41184 101.09626 32964 ft 457 kts 19°
2026-05-07 12:56 16.47168 101.11897 32966 ft 458 kts 19°
2026-05-07 12:57 16.53157 101.14171 32968 ft 458 kts 19°
2026-05-07 12:57 16.59155 101.16445 32969 ft 459 kts 19°
2026-05-07 12:58 16.65150 101.18729 32972 ft 459 kts 19°
2026-05-07 12:58 16.71193 101.20894 32977 ft 459 kts 16°
2026-05-07 12:59 16.76340 101.22418 32982 ft 459 kts 14°
2026-05-07 12:59 16.82510 101.24126 32982 ft 459 kts 14°
2026-05-07 13:00 16.88664 101.25903 32987 ft 459 kts 15°
2026-05-07 13:00 16.94795 101.27753 32991 ft 459 kts 15°
2026-05-07 13:01 17.00929 101.29609 32993 ft 458 kts 15°
2026-05-07 13:01 17.07054 101.31448 32987 ft 458 kts 15°
2026-05-07 13:02 17.13184 101.33274 32985 ft 458 kts 15°
2026-05-07 13:02 17.19319 101.35098 32991 ft 458 kts 14°
2026-05-07 13:03 17.25449 101.36926 32983 ft 458 kts 14°
2026-05-07 13:03 17.31589 101.38760 32978 ft 459 kts 14°
2026-05-07 13:04 17.37735 101.40601 32971 ft 459 kts 14°
2026-05-07 13:04 17.43872 101.42444 32971 ft 459 kts 14°
2026-05-07 13:05 17.50055 101.44303 32974 ft 459 kts 14°
2026-05-07 13:05 17.56195 101.46148 32972 ft 459 kts 14°
2026-05-07 13:06 17.62336 101.47994 32973 ft 459 kts 14°
2026-05-07 13:06 17.68469 101.49851 32970 ft 459 kts 14°
2026-05-07 13:07 17.74601 101.51703 32971 ft 458 kts 14°
2026-05-07 13:07 17.80731 101.53532 32965 ft 458 kts 14°
2026-05-07 13:08 17.86867 101.55351 32965 ft 458 kts 14°
2026-05-07 13:08 17.93004 101.57187 32963 ft 458 kts 14°
2026-05-07 13:09 17.99138 101.59024 32960 ft 458 kts 14°
2026-05-07 13:09 18.05276 101.60858 32961 ft 459 kts 14°
2026-05-07 13:10 18.11414 101.62700 32962 ft 459 kts 14°
2026-05-07 13:10 18.17552 101.64538 32960 ft 459 kts 14°
2026-05-07 13:11 18.23698 101.66378 32957 ft 459 kts 14°
2026-05-07 13:11 18.29839 101.68228 32962 ft 459 kts 14°
2026-05-07 13:12 18.35984 101.70079 32958 ft 459 kts 14°
2026-05-07 13:12 18.42136 101.71932 32958 ft 460 kts 14°
2026-05-07 13:13 18.48283 101.73784 32961 ft 460 kts 14°
2026-05-07 13:13 18.54474 101.75654 32954 ft 460 kts 14°
2026-05-07 13:14 18.60632 101.77510 32955 ft 460 kts 14°
2026-05-07 13:14 18.66788 101.79370 32952 ft 461 kts 14°
2026-05-07 13:15 18.72959 101.81234 32945 ft 461 kts 14°
2026-05-07 13:15 18.79126 101.83101 32950 ft 461 kts 14°
2026-05-07 13:16 18.85300 101.84962 32948 ft 462 kts 14°
2026-05-07 13:16 18.91483 101.86828 32946 ft 462 kts 14°
2026-05-07 13:17 18.97663 101.88702 32943 ft 463 kts 14°
2026-05-07 13:17 19.03857 101.90579 32949 ft 463 kts 14°
2026-05-07 13:18 19.10062 101.92463 32941 ft 464 kts 14°
2026-05-07 13:18 19.16272 101.94350 32941 ft 464 kts 14°
2026-05-07 13:19 19.22488 101.96240 32945 ft 465 kts 14°
2026-05-07 13:19 19.28703 101.98124 32944 ft 465 kts 14°
2026-05-07 13:20 19.34933 102.00023 32934 ft 466 kts 14°
2026-05-07 13:20 19.41161 102.01929 32934 ft 466 kts 13°
2026-05-07 13:21 19.47442 102.03844 32930 ft 467 kts 13°
2026-05-07 13:21 19.53685 102.05743 32925 ft 467 kts 13°
2026-05-07 13:22 19.59937 102.07649 32912 ft 468 kts 13°
2026-05-07 13:22 19.66191 102.09559 32893 ft 468 kts 13°
2026-05-07 13:23 19.69313 102.10517 32658 ft 465 kts 13°
2026-05-07 13:23 19.72421 102.11469 32094 ft 465 kts 13°
2026-05-07 13:23 19.75542 102.12424 31884 ft 468 kts 13°
2026-05-07 13:23 19.78672 102.13383 31883 ft 469 kts 13°
2026-05-07 13:24 19.84962 102.15305 31882 ft 471 kts 12°
2026-05-07 13:24 19.91397 102.16009 31883 ft 464 kts 353°
2026-05-07 13:25 19.97601 102.14446 31885 ft 458 kts 335°
2026-05-07 13:25 20.03512 102.11922 31888 ft 458 kts 335°
2026-05-07 13:26 20.09426 102.09405 31896 ft 458 kts 336°
2026-05-07 13:26 20.15344 102.06888 31903 ft 458 kts 335°
2026-05-07 13:27 20.21262 102.04364 31922 ft 458 kts 335°
2026-05-07 13:27 20.27180 102.01842 31942 ft 458 kts 335°
2026-05-07 13:28 20.33136 101.99299 31951 ft 458 kts 335°
2026-05-07 13:28 20.39052 101.96771 31959 ft 458 kts 335°
2026-05-07 13:29 20.44967 101.94244 31965 ft 458 kts 335°
2026-05-07 13:29 20.50881 101.91714 31967 ft 458 kts 335°
2026-05-07 13:30 20.56788 101.89183 31973 ft 458 kts 335°
2026-05-07 13:30 20.62702 101.86648 31977 ft 458 kts 335°
2026-05-07 13:31 20.68610 101.84113 31974 ft 458 kts 335°
2026-05-07 13:31 20.74522 101.81574 31981 ft 458 kts 335°
2026-05-07 13:32 20.79434 101.79465 31985 ft 458 kts 335°
2026-05-07 13:32 20.85340 101.76922 31992 ft 458 kts 335°
2026-05-07 13:33 20.91251 101.74376 32002 ft 458 kts 335°
2026-05-07 13:33 20.97199 101.71819 32011 ft 458 kts 335°
2026-05-07 13:34 21.06064 101.67999 32016 ft 458 kts 334°
2026-05-07 13:35 21.11967 101.65441 32018 ft 458 kts 334°
2026-05-07 13:35 21.17879 101.62889 32018 ft 458 kts 335°
2026-05-07 13:36 21.23794 101.60350 32017 ft 458 kts 335°
2026-05-07 13:36 21.29720 101.57827 32027 ft 458 kts 335°
2026-05-07 13:37 21.35643 101.55295 32022 ft 458 kts 335°
2026-05-07 13:37 21.41556 101.52760 32025 ft 458 kts 334°
2026-05-07 13:38 21.47472 101.50224 32027 ft 458 kts 334°
2026-05-07 13:38 21.53381 101.47687 32029 ft 458 kts 334°
2026-05-07 13:39 21.59290 101.45146 32019 ft 457 kts 334°
2026-05-07 13:39 21.65196 101.42603 32023 ft 457 kts 334°
2026-05-07 13:40 21.71107 101.40058 32023 ft 457 kts 334°
2026-05-07 13:40 21.77012 101.37514 32023 ft 457 kts 334°
2026-05-07 13:41 21.82925 101.34965 32018 ft 458 kts 334°
2026-05-07 13:41 21.88875 101.32409 32019 ft 458 kts 334°
2026-05-07 13:42 21.94788 101.29858 32026 ft 458 kts 334°
2026-05-07 13:42 22.00702 101.27307 32029 ft 458 kts 334°
2026-05-07 13:43 22.06615 101.24758 32027 ft 458 kts 334°
2026-05-07 13:43 22.12525 101.22206 32025 ft 458 kts 334°
2026-05-07 13:44 22.18442 101.19650 32027 ft 458 kts 334°
2026-05-07 13:44 22.24360 101.17099 32033 ft 458 kts 334°
2026-05-07 13:45 22.30284 101.14546 32037 ft 458 kts 334°
2026-05-07 13:45 22.36200 101.11985 32041 ft 458 kts 334°
2026-05-07 13:46 22.42112 101.09421 32048 ft 458 kts 334°
2026-05-07 13:46 22.47873 101.06920 32049 ft 457 kts 334°
2026-05-07 13:47 22.53783 101.04354 31778 ft 458 kts 334°
2026-05-07 13:47 22.56747 101.03067 31567 ft 459 kts 334°
2026-05-07 13:47 22.59712 101.01780 31358 ft 459 kts 334°
2026-05-07 13:47 22.62678 101.00490 31152 ft 460 kts 334°
2026-05-07 13:48 22.65681 100.99261 30940 ft 464 kts 340°
2026-05-07 13:48 22.68881 100.98679 30732 ft 473 kts 354°
2026-05-07 13:48 22.72189 100.99019 30527 ft 483 kts 11°
2026-05-07 13:48 22.75329 101.00378 30325 ft 493 kts 28°
2026-05-07 13:49 22.78151 101.02528 30135 ft 497 kts 34°
2026-05-07 13:49 22.80965 101.04803 29915 ft 499 kts 34°
2026-05-07 13:49 22.83710 101.07031 29681 ft 500 kts 34°
2026-05-07 13:49 22.86534 101.09322 29446 ft 500 kts 34°
2026-05-07 13:50 22.89323 101.11575 29209 ft 501 kts 34°
2026-05-07 13:50 22.92125 101.13829 28974 ft 501 kts 34°
2026-05-07 13:50 22.94921 101.16076 28745 ft 499 kts 34°
2026-05-07 13:50 22.97709 101.18315 28505 ft 498 kts 34°
2026-05-07 13:51 23.00488 101.20549 28286 ft 496 kts 34°
2026-05-07 13:51 23.03255 101.22775 28063 ft 495 kts 34°
2026-05-07 13:51 23.06019 101.25004 27819 ft 494 kts 34°
2026-05-07 13:51 23.08770 101.27225 27579 ft 492 kts 34°
2026-05-07 13:52 23.11510 101.29438 27337 ft 490 kts 34°
2026-05-07 13:52 23.14242 101.31645 27096 ft 489 kts 34°
2026-05-07 13:52 23.16966 101.33843 26859 ft 487 kts 34°
2026-05-07 13:52 23.19685 101.36039 26624 ft 486 kts 34°
2026-05-07 13:53 23.22389 101.38226 26390 ft 484 kts 34°
2026-05-07 13:53 23.25092 101.40414 26158 ft 483 kts 34°
2026-05-07 13:53 23.27783 101.42595 25927 ft 482 kts 34°
2026-05-07 13:53 23.30463 101.44772 25701 ft 481 kts 34°
2026-05-07 13:54 23.33138 101.46942 25476 ft 479 kts 34°
2026-05-07 13:54 23.35807 101.49107 25251 ft 478 kts 34°
2026-05-07 13:54 23.38469 101.51267 25029 ft 476 kts 34°
2026-05-07 13:54 23.41116 101.53417 24810 ft 475 kts 34°
2026-05-07 13:55 23.43764 101.55569 24590 ft 474 kts 34°
2026-05-07 13:55 23.46403 101.57715 24372 ft 473 kts 34°
2026-05-07 13:55 23.49033 101.59851 24160 ft 471 kts 34°
2026-05-07 13:55 23.51658 101.61987 23949 ft 470 kts 34°
2026-05-07 13:56 23.54271 101.64113 23739 ft 469 kts 34°
2026-05-07 13:56 23.56882 101.66236 23522 ft 468 kts 34°
2026-05-07 13:56 23.59487 101.68356 23261 ft 466 kts 34°
2026-05-07 13:56 23.62071 101.70464 23003 ft 464 kts 34°
2026-05-07 13:57 23.64645 101.72567 22751 ft 462 kts 34°
2026-05-07 13:57 23.67249 101.74697 22493 ft 459 kts 34°
2026-05-07 13:57 23.69794 101.76777 22248 ft 457 kts 34°
2026-05-07 13:57 23.72334 101.78850 22004 ft 454 kts 34°
2026-05-07 13:58 23.74853 101.80907 21760 ft 452 kts 34°
2026-05-07 13:58 23.77365 101.82957 21518 ft 450 kts 34°
2026-05-07 13:58 23.79860 101.84994 21274 ft 448 kts 34°
2026-05-07 13:58 23.82345 101.87026 21043 ft 446 kts 34°
2026-05-07 13:59 23.84830 101.89061 20808 ft 444 kts 34°
2026-05-07 13:59 23.87294 101.91078 20577 ft 441 kts 34°
2026-05-07 13:59 23.89728 101.93070 20350 ft 432 kts 34°
2026-05-07 13:59 23.92106 101.95019 20115 ft 424 kts 34°
2026-05-07 14:00 23.94439 101.96939 19891 ft 415 kts 34°
2026-05-07 14:00 23.96716 101.98813 19669 ft 406 kts 34°
2026-05-07 14:00 23.98950 102.00650 19439 ft 397 kts 33°
2026-05-07 14:00 24.01149 102.02458 19222 ft 393 kts 33°
2026-05-07 14:01 24.03325 102.04245 19006 ft 390 kts 33°
2026-05-07 14:01 24.05491 102.06023 18790 ft 388 kts 33°
2026-05-07 14:01 24.07643 102.07791 18569 ft 387 kts 33°
2026-05-07 14:01 24.09793 102.09560 18350 ft 386 kts 33°
2026-05-07 14:02 24.11937 102.11325 18098 ft 384 kts 33°
2026-05-07 14:02 24.14053 102.13070 17852 ft 377 kts 33°
2026-05-07 14:02 24.16126 102.14782 17611 ft 370 kts 33°
2026-05-07 14:02 24.18169 102.16469 17363 ft 366 kts 34°
2026-05-07 14:03 24.20195 102.18138 17123 ft 364 kts 33°
2026-05-07 14:03 24.22212 102.19799 16883 ft 362 kts 34°
2026-05-07 14:03 24.24208 102.21445 16639 ft 356 kts 34°
2026-05-07 14:03 24.26172 102.23067 16403 ft 350 kts 34°
2026-05-07 14:04 24.28099 102.24662 16166 ft 344 kts 34°
2026-05-07 14:04 24.29997 102.26231 15934 ft 339 kts 34°
2026-05-07 14:04 24.31870 102.27777 15706 ft 335 kts 34°
2026-05-07 14:04 24.33720 102.29304 15466 ft 331 kts 34°
2026-05-07 14:05 24.35547 102.30815 15240 ft 327 kts 34°
2026-05-07 14:05 24.36765 102.31825 15085 ft 324 kts 34°
2026-05-07 14:05 24.38552 102.33309 14856 ft 320 kts 34°
2026-05-07 14:05 24.40898 102.35253 14555 ft 314 kts 34°
2026-05-07 14:06 24.42050 102.36205 14406 ft 311 kts 34°
2026-05-07 14:06 24.43768 102.37625 14187 ft 308 kts 34°
2026-05-07 14:06 24.45469 102.39033 13963 ft 305 kts 35°
2026-05-07 14:06 24.47154 102.40429 13711 ft 302 kts 35°
2026-05-07 14:07 24.48824 102.41813 13468 ft 300 kts 35°
2026-05-07 14:07 24.50485 102.43190 13211 ft 298 kts 35°
2026-05-07 14:07 24.52135 102.44559 12970 ft 296 kts 36°
2026-05-07 14:07 24.53778 102.45921 12724 ft 295 kts 36°
2026-05-07 14:08 24.55403 102.47269 12562 ft 291 kts 36°
2026-05-07 14:08 24.56995 102.48593 12441 ft 283 kts 36°
2026-05-07 14:08 24.58558 102.49892 12347 ft 281 kts 36°
2026-05-07 14:08 24.60111 102.51184 12250 ft 279 kts 36°
2026-05-07 14:09 24.61661 102.52474 12154 ft 279 kts 36°
2026-05-07 14:09 24.63205 102.53759 12062 ft 278 kts 36°
2026-05-07 14:09 24.64750 102.55042 11967 ft 278 kts 36°
2026-05-07 14:09 24.66287 102.56321 11871 ft 277 kts 36°
2026-05-07 14:10 24.67823 102.57597 11779 ft 276 kts 36°
2026-05-07 14:10 24.69366 102.58855 11689 ft 276 kts 36°
2026-05-07 14:10 24.70908 102.60103 11596 ft 275 kts 36°
2026-05-07 14:10 24.72437 102.61367 11503 ft 275 kts 37°
2026-05-07 14:11 24.73941 102.62655 11408 ft 266 kts 38°
2026-05-07 14:11 24.75367 102.63893 11316 ft 257 kts 38°
2026-05-07 14:11 24.76740 102.65091 11224 ft 248 kts 38°
2026-05-07 14:11 24.78078 102.66256 11131 ft 244 kts 38°
2026-05-07 14:12 24.79408 102.67412 11046 ft 242 kts 39°
2026-05-07 14:12 24.80483 102.68353 10964 ft 241 kts 39°
2026-05-07 14:12 24.81781 102.69495 10898 ft 233 kts 39°
2026-05-07 14:12 24.83018 102.70568 10798 ft 221 kts 39°
2026-05-07 14:13 24.84207 102.71596 10785 ft 216 kts 39°
2026-05-07 14:13 24.85384 102.72615 10795 ft 215 kts 39°
2026-05-07 14:13 24.86558 102.73630 10799 ft 214 kts 39°
2026-05-07 14:13 24.87724 102.74639 10806 ft 211 kts 39°
2026-05-07 14:14 24.88870 102.75632 10808 ft 209 kts 39°
2026-05-07 14:14 24.90008 102.76618 10816 ft 208 kts 39°
2026-05-07 14:14 24.91142 102.77600 10815 ft 207 kts 39°
2026-05-07 14:14 24.92274 102.78581 10818 ft 207 kts 39°
2026-05-07 14:15 24.93408 102.79564 10686 ft 206 kts 40°
2026-05-07 14:15 24.94532 102.80537 10468 ft 204 kts 40°
2026-05-07 14:15 24.95640 102.81497 10231 ft 202 kts 41°
2026-05-07 14:15 24.96728 102.82440 9966 ft 194 kts 41°
2026-05-07 14:16 24.97751 102.83326 9713 ft 180 kts 41°
2026-05-07 14:16 24.98702 102.84152 9492 ft 170 kts 41°
2026-05-07 14:16 24.99616 102.84946 9272 ft 165 kts 42°
2026-05-07 14:16 25.00502 102.85715 9083 ft 161 kts 41°
2026-05-07 14:17 25.01373 102.86471 8858 ft 159 kts 42°
2026-05-07 14:17 25.02240 102.87225 8655 ft 159 kts 41°
2026-05-07 14:17 25.03106 102.87977 8445 ft 158 kts 41°
2026-05-07 14:17 25.03966 102.88724 8247 ft 157 kts 42°
2026-05-07 14:18 25.04822 102.89467 8050 ft 157 kts 41°
2026-05-07 14:18 25.05658 102.90194 7826 ft 156 kts 41°
2026-05-07 14:18 25.06359 102.90803 7628 ft 156 kts 40°
2026-05-07 14:18 25.07208 102.91542 7392 ft 155 kts 39°
2026-05-07 14:19 25.08060 102.92272 7175 ft 155 kts 38°
2026-05-07 14:19 25.08917 102.93011 6956 ft 154 kts 38°
2026-05-07 14:19 25.09691 102.93696 6893 ft 124 kts 39°
2026-05-07 14:19 25.10227 102.94164 6894 ft 80 kts 38°
2026-05-07 14:20 25.10573 102.94465 6891 ft 50 kts 38°
2026-05-07 14:20 25.10768 102.94579 6890 ft 18 kts 15°
2026-05-07 14:20 25.10890 102.94608 6890 ft 15 kts 349°
2026-05-07 14:20 25.10965 102.94528 6891 ft 15 kts 303°
2026-05-07 14:21 25.10950 102.94428 6891 ft 15 kts 219°
2026-05-07 14:21 25.10867 102.94354 6891 ft 16 kts 219°
2026-05-07 14:21 25.10779 102.94279 6892 ft 16 kts 217°
2026-05-07 14:21 25.10686 102.94201 6892 ft 17 kts 220°
2026-05-07 14:22 25.10629 102.94148 6893 ft 11 kts 219°
2026-05-07 14:22 25.10569 102.94094 6893 ft 11 kts 218°
2026-05-07 14:22 25.10505 102.94039 6893 ft 12 kts 217°
2026-05-07 14:22 25.10436 102.93981 6893 ft 13 kts 217°
2026-05-07 14:23 25.10364 102.93919 6893 ft 13 kts 219°
2026-05-07 14:23 25.10290 102.93851 6894 ft 14 kts 219°
2026-05-07 14:23 25.10210 102.93781 6894 ft 15 kts 218°
2026-05-07 14:23 25.10124 102.93706 6894 ft 16 kts 218°
2026-05-07 14:24 25.10034 102.93629 6894 ft 17 kts 218°
2026-05-07 14:24 25.09941 102.93547 6894 ft 18 kts 219°
2026-05-07 14:24 25.09846 102.93467 6895 ft 15 kts 224°
2026-05-07 14:24 25.09850 102.93366 6895 ft 15 kts 302°
2026-05-07 14:25 25.09905 102.93275 6896 ft 14 kts 308°